Location: Feydey
(46.3431°N, 7.0106°E)
Time: 13:18:16
(UTC+00:00)

SL-16 R/B - Pass Details

Date: 20 June 2021
Orbit: 842 x 846 km, 71.0° (Epoch: 02 August)

Event Time Altitude Azimuth Distance (km) Brightness Sun altitude
Rises 20:43:29 0° 234° (SW) 3,391 5.4 -10.3°
Reaches altitude 10° 20:46:09 10° 243° (WSW) 2,460 4.8 -10.6°
Maximum altitude 20:51:15 34° 308° (NW) 1,361 4.1 -11.1°
Drops below altitude 10° 20:56:24 10° 13° (NNE) 2,475 5.2 -11.7°
Sets 20:59:06 0° 22° (NNE) 3,414 5.8 -11.9°
